CZ-6A DEB, 64633

Orbit data source: Space-Track

CZ-6A DEB, 64633 is space debris in LEO originally from a launch on Tue, 06 Aug 2024 UTC launched from the Taiyaun Space Center, China (TSC). Debris objects in space refer to the collection of defunct objects orbiting the Earth. Examples of debris include non-operational satellites, rocket bodies, and fragments generated from explosions, collisions, or faulty payload assembly.

Loading next visibility...
Identifier
64633, 2024-140ADX
Orbit
LEO
Country
Flag of CNCN / PRC
Related business
Manufacturer
SAST
Mission
Spacecraft
Bus & Motor
Unknown
Mass
Unknown
Launch date (UTC)
2024-08-06 (2 years ago)
Launch vehicle
Unknown
Launch site
Taiyaun Space Center, China (TSC)
Object type
Payload
Rocket body
Debris
Shape & HBR
Unknown shape, 0.1 m
Radar Cross Section
Small (<0.1 m²)

Expand to show TLE details & history
Last TLE update: 16 hours ago

TLE from 16 hours ago
0 CZ-6A DEB
1 64633U 24140ADX 26129.85695686  .00002328  00000-0  11973-2 0  9994
2 64633  88.9925 279.9495 0103977 352.6956   7.2709 14.12219868 84327
Epoch: 2026-05-09T20:34Z
TLE epoch observation values (Epoch: 2026-05-09T20:34:01.072Z)
Latitude
0.00004°
Longitude
103.77665°
Altitude
780.254 km
Speed
7.502 km/s
True Right ascension
18h 39m 47s
True Declination
0° 00' 00"
Sunlit
Object was in full shadow at epoch
Visualization orbit readout
Latitude
Unknown
Longitude
Unknown
Altitude
Unknown
Speed
Unknown
Apparent Right ascension
Unknown
Apparent Declination
Unknown
Sunlit
N/A
Visualization observer readout
Local Sidereal Time
20:41:32
Azimuth
Unknown
Elevation
Unknown
Doppler factor
Unknown
Orbital elements
Apogee altitude
923.89 km
Perigee altitude
773.604 km
Semi-major axis
7,226.884 km
Eccentricity
0.0104
Inclination
88.9925°
RAAN
279.9495°
Arg. of periapsis
352.6956°
True anomaly
7.42366°
Mean anomaly
7.2709°
Eccentric anomaly
7.34708°
Mean motion
3.53278 °/min
Orbital period
101.9 mins
BSTAR
0.0011973
Loading maneuver chart data...
Computing Atmospheric mass density...
Loading historical data...
Loading historical data...
Loading historical data...
Loading historical data...
Loading historical data...
Loading historical data...
Loading historical data...

Documentation

Showing up to 5 results
|